Location: Aciu?a
(46.2833°N, 22.4500°E)
Time: 11:21:20
(UTC+00:00)

Cosmos 1980 Rocket - Pass Details

Date: 25 October 2021
Orbit: 828 x 851 km, 71.0° (Epoch: 06 December)

Event Time Altitude Azimuth Distance (km) Brightness Sun altitude
Rises 16:39:28 0° 240° (WSW) 3,390 6.6 -13.2°
Reaches altitude 10° 16:42:15 10° 252° (WSW) 2,463 5.9 -13.7°
Maximum altitude 16:47:05 28° 311° (NW) 1,534 4.1 -14.5°
Drops below altitude 10° 16:51:58 10° 9° (N) 2,485 4.5 -15.4°
Sets 16:54:47 0° 21° (NNE) 3,426 5.1 -15.9°
